Rome, NY

12:39 PM EST on November 15, 2019 (GMT -0500)
Griffiss

Weather History for KRME - September, 2019

Change the Weather History Date:

Thursday, September 5, 2019

  Actual Average Record
Temperature  
Mean Temperature 60 °F -  
Max Temperature 72 °F 75 °F 91 °F (2008)
Min Temperature 48 °F 53 °F 40 °F (1984)
Degree Days  
Heating Degree Days 6    
Growing Degree Days 10 (Base 50)    
Moisture  
Dew Point 52 °F    
Average Humidity 78    
Maximum Humidity 100    
Minimum Humidity 51    
Precipitation  
Precipitation 0.00 in - - ()
Sea Level Pressure  
Sea Level Pressure 30.10 in    
Wind  
Wind Speed 1 mph (West)    
Max Wind Speed 7 mph    
Max Gust Speed -    
Visibility 10 miles    
Events      
Averages and records for this station are not official NWS values.
T = Trace of Precipitation, MM = Missing Value Source: NWS Daily Summary

Daily Weather History Graph

Daily Weather History Graph

Search for Another Location

Airport or City:

Astronomy

Sep. 05, 2019 Rise Set
Actual Time 6:29 AM EDT 7:30 PM EDT
Civil Twilight 6:00 AM EDT 7:59 PM EDT
Nautical Twilight 5:26 AM EDT 8:33 PM EDT
Astronomical Twilight 4:49 AM EDT 9:09 PM EDT
Moon 1:45 PM EDT (9/5) 11:32 PM EDT (9/5)
Length of Visible Light 13h 58m
Length of Day
13h 00m
Waxing Crescent, 45% of the Moon is Illuminated
Sep 5
Waxing Crescent
Sep 5
First Quarter
Sep 14
Full
Sep 21
Last Quarter
Sep 28
New

Hourly Weather History & Observations

Time (EDT) Temp. Dew Point Humidity Pressure Visibility Wind Dir Wind Speed Gust Speed Precip Events Conditions
12:53 AM 55.9 °F 54.0 °F 93% 30.09 in 10.0 mi Calm Calm - N/A   Clear
1:53 AM 54.0 °F 53.1 °F 97% 30.10 in 10.0 mi Calm Calm - N/A   Clear
2:53 AM 52.0 °F 51.1 °F 97% 30.09 in 10.0 mi Calm Calm - N/A   Clear
3:53 AM 52.0 °F 51.1 °F 97% 30.09 in 10.0 mi Calm Calm - N/A   Clear
4:53 AM 48.9 °F 48.9 °F 100% 30.09 in 10.0 mi Calm Calm - N/A   Clear
5:53 AM 48.0 °F 48.0 °F 100% 30.11 in 10.0 mi Calm Calm - N/A   Clear
6:53 AM 48.9 °F 48.9 °F 100% 30.14 in 10.0 mi Calm Calm - N/A   Clear
7:53 AM 52.0 °F 51.1 °F 97% 30.15 in 10.0 mi Calm Calm - N/A   Clear
8:53 AM 57.0 °F 53.1 °F 87% 30.15 in 10.0 mi Calm Calm - N/A   Clear
9:53 AM 60.1 °F 52.0 °F 75% 30.17 in 10.0 mi Calm Calm - N/A   Clear
10:53 AM 64.0 °F 50.0 °F 60% 30.16 in 10.0 mi Calm Calm - N/A   Clear
11:53 AM 66.0 °F 51.1 °F 59% 30.14 in 10.0 mi Variable 4.6 mph - N/A   Clear
12:53 PM 68.0 °F 52.0 °F 56% 30.13 in 10.0 mi NW 4.6 mph - N/A   Mostly Cloudy
1:53 PM 70.0 °F 52.0 °F 53% 30.12 in 10.0 mi Calm Calm - N/A   Clear
2:53 PM 70.0 °F 51.1 °F 51% 30.10 in 10.0 mi Calm Calm - N/A   Partly Cloudy
3:53 PM 71.1 °F 54.0 °F 55% 30.07 in 10.0 mi SW 4.6 mph - N/A   Clear
4:53 PM 71.1 °F 53.1 °F 53% 30.07 in 10.0 mi Calm Calm - N/A   Clear
5:53 PM 70.0 °F 53.1 °F 55% 30.07 in 10.0 mi West 6.9 mph - N/A   Clear
6:53 PM 68.0 °F 53.1 °F 59% 30.08 in 10.0 mi West 5.8 mph - N/A   Clear
7:53 PM 64.9 °F 54.0 °F 68% 30.08 in 10.0 mi West 4.6 mph - N/A   Clear
8:53 PM 57.0 °F 54.0 °F 89% 30.08 in 10.0 mi NW 5.8 mph - N/A   Clear
9:53 PM 57.9 °F 54.0 °F 87% 30.08 in 10.0 mi Calm Calm - N/A   Clear
10:53 PM 54.0 °F 53.1 °F 97% 30.08 in 10.0 mi Calm Calm - N/A   Clear
11:53 PM 53.1 °F 52.0 °F 96% 30.07 in 10.0 mi Calm Calm - N/A   Clear